| time (UTC) | temp C | wind direction | speed KPH | gust KPH | rain 1hr cm | rain 24hr cm | rain mn cm | humidity % | barometer mb |
| 20260507052519 | 14 | 0 | 0.0 | 0.0 | 0.00 | 0.00 | 0.00 | 84 | 1021.4 |
| 20260507052019 | 14 | 0 | 0.0 | 0.0 | 0.00 | 0.00 | 0.00 | 84 | 1021.4 |
| 20260507051541 | 14 | 0 | 0.0 | 0.0 | 0.00 | 0.00 | 0.00 | 84 | 1021.5 |
| 20260507051018 | 14 | 0 | 0.0 | 0.0 | 0.00 | 0.00 | 0.00 | 84 | 1021.5 |
| 20260507050519 | 14 | 0 | 0.0 | 0.0 | 0.00 | 0.00 | 0.00 | 83 | 1021.5 |
| 20260507050043 | 14 | 0 | 0.0 | 0.0 | 0.00 | 0.00 | 0.00 | 83 | 1021.4 |
| 20260507045519 | 14 | 0 | 0.0 | 0.0 | 0.00 | 0.00 | 0.00 | 83 | 1021.5 |
| 20260507045020 | 15 | 0 | 0.0 | 0.0 | 0.00 | 0.00 | 0.00 | 83 | 1021.5 |
| 20260507044539 | 15 | 0 | 0.0 | 0.0 | 0.00 | 0.00 | 0.00 | 82 | 1021.4 |
| 20260507044018 | 15 | 0 | 0.0 | 0.0 | 0.00 | 0.00 | 0.00 | 82 | 1021.3 |
| 20260507043519 | 15 | 0 | 0.0 | 0.0 | 0.00 | 0.00 | 0.00 | 82 | 1021.2 |
| 20260507043040 | 15 | 0 | 0.0 | 0.0 | 0.00 | 0.00 | 0.00 | 81 | 1021.3 |
| 20260507042520 | 15 | 0 | 0.0 | 1.6 | 0.00 | 0.00 | 0.00 | 81 | 1021.2 |
| 20260507042019 | 15 | 0 | 0.0 | 3.2 | 0.00 | 0.00 | 0.00 | 81 | 1021.3 |
| 20260507041542 | 15 | 0 | 0.0 | 3.2 | 0.00 | 0.00 | 0.00 | 80 | 1021.1 |
| 20260507041021 | 15 | 0 | 0.0 | 6.4 | 0.00 | 0.00 | 0.00 | 80 | 1021.0 |
| 20260507040519 | 15 | 0 | 0.0 | 6.4 | 0.00 | 0.00 | 0.00 | 80 | 1021.0 |
| 20260507040042 | 15 | 0 | 0.0 | 3.2 | 0.00 | 0.00 | 0.00 | 79 | 1021.0 |
| 20260507035519 | 15 | 0 | 0.0 | 4.8 | 0.00 | 0.00 | 0.00 | 79 | 1020.9 |
| 20260507035019 | 16 | 0 | 0.0 | 4.8 | 0.00 | 0.00 | 0.00 | 78 | 1020.8 |
| 20260507034538 | 16 | 0 | 0.0 | 4.8 | 0.00 | 0.00 | 0.00 | 78 | 1020.7 |
| 20260507034016 | 16 | 0 | 0.0 | 0.0 | 0.00 | 0.00 | 0.00 | 78 | 1020.8 |
| 20260507033518 | 16 | 0 | 0.0 | 1.6 | 0.00 | 0.00 | 0.00 | 77 | 1020.5 |
| 20260507033037 | 16 | 0 | 0.0 | 4.8 | 0.00 | 0.00 | 0.00 | 76 | 1020.6 |
| 20260507032519 | 16 | 0 | 0.0 | 4.8 | 0.00 | 0.00 | 0.00 | 76 | 1020.5 |
| 20260507032018 | 16 | 0 | 0.0 | 4.8 | 0.00 | 0.00 | 0.00 | 76 | 1020.4 |
| 20260507031539 | 17 | 0 | 0.0 | 12.9 | 0.00 | 0.00 | 0.00 | 75 | 1020.1 |
| 20260507031024 | 17 | 0 | 0.0 | 12.9 | 0.00 | 0.00 | 0.00 | 75 | 1020.1 |
| 20260507030519 | 17 | 0 | 1.6 | 12.9 | 0.00 | 0.00 | 0.00 | 74 | 1020.0 |
| 20260507030033 | 17 | 0 | 0.0 | 8.0 | 0.00 | 0.00 | 0.00 | 73 | 1020.0 |
| 20260507025519 | 17 | 354 | 0.0 | 8.0 | 0.00 | 0.00 | 0.00 | 73 | 1019.9 |
| 20260507025019 | 18 | 0 | 0.0 | 8.0 | 0.00 | 0.00 | 0.00 | 72 | 1019.8 |
| 20260507024538 | 18 | 0 | 0.0 | 8.0 | 0.00 | 0.00 | 0.00 | 71 | 1019.8 |
| 20260507024018 | 18 | 314 | 0.0 | 9.7 | 0.00 | 0.00 | 0.00 | 71 | 1019.7 |
| 20260507023522 | 18 | 0 | 0.0 | 9.7 | 0.00 | 0.00 | 0.00 | 71 | 1019.8 |
| 20260507023035 | 18 | 306 | 0.0 | 11.3 | 0.00 | 0.00 | 0.00 | 70 | 1019.7 |
| 20260507022517 | 19 | 0 | 1.6 | 11.3 | 0.00 | 0.00 | 0.00 | 70 | 1019.6 |
| 20260507022019 | 19 | 317 | 1.6 | 11.3 | 0.00 | 0.00 | 0.00 | 69 | 1019.6 |
| 20260507021538 | 19 | 264 | 1.6 | 11.3 | 0.00 | 0.00 | 0.00 | 68 | 1019.6 |
| 20260507021021 | 20 | 0 | 0.0 | 9.7 | 0.00 | 0.00 | 0.00 | 68 | 1019.4 |
| 20260507020520 | 20 | 298 | 1.6 | 8.0 | 0.00 | 0.00 | 0.00 | 67 | 1019.5 |
| 20260507020045 | 20 | 0 | 0.0 | 8.0 | 0.00 | 0.00 | 0.00 | 67 | 1019.5 |
| 20260507015518 | 20 | 0 | 0.0 | 11.3 | 0.00 | 0.00 | 0.00 | 67 | 1019.5 |
| 20260507015019 | 20 | 0 | 0.0 | 11.3 | 0.00 | 0.00 | 0.00 | 67 | 1019.5 |
| 20260507014541 | 20 | 0 | 1.6 | 11.3 | 0.00 | 0.00 | 0.00 | 66 | 1019.4 |
| 20260507014016 | 20 | 0 | 0.0 | 8.0 | 0.00 | 0.00 | 0.00 | 65 | 1019.5 |
| 20260507013520 | 21 | 0 | 0.0 | 12.9 | 0.00 | 0.00 | 0.00 | 65 | 1019.5 |
| 20260507013045 | 21 | 0 | 0.0 | 12.9 | 0.00 | 0.00 | 0.00 | 64 | 1019.5 |
| 20260507012519 | 21 | 0 | 0.0 | 14.5 | 0.00 | 0.00 | 0.00 | 64 | 1019.5 |
| 20260507012021 | 21 | 313 | 1.6 | 14.5 | 0.00 | 0.00 | 0.00 | 64 | 1019.4 |
| 20260507011543 | 21 | 0 | 1.6 | 14.5 | 0.00 | 0.00 | 0.00 | 63 | 1019.4 |
| 20260507011019 | 21 | 0 | 0.0 | 14.5 | 0.00 | 0.00 | 0.00 | 63 | 1019.4 |
| 20260507010522 | 21 | 0 | 1.6 | 14.5 | 0.00 | 0.00 | 0.00 | 62 | 1019.3 |
| 20260507010043 | 21 | 330 | 6.4 | 14.5 | 0.00 | 0.00 | 0.00 | 62 | 1019.4 |
| 20260507005519 | 22 | 0 | 4.8 | 14.5 | 0.00 | 0.00 | 0.00 | 61 | 1019.3 |
| 20260507005020 | 22 | 0 | 3.2 | 14.5 | 0.00 | 0.00 | 0.00 | 60 | 1019.3 |
| 20260507004536 | 22 | 0 | 6.4 | 14.5 | 0.00 | 0.00 | 0.00 | 60 | 1019.2 |
| 20260507004019 | 22 | 265 | 3.2 | 14.5 | 0.00 | 0.00 | 0.00 | 59 | 1019.2 |
| 20260507003518 | 22 | 0 | 1.6 | 14.5 | 0.00 | 0.00 | 0.00 | 59 | 1019.1 |
| 20260507003036 | 22 | 298 | 1.6 | 12.9 | 0.00 | 0.00 | 0.00 | 59 | 1019.1 |
| 20260507002516 | 22 | 0 | 3.2 | 12.9 | 0.00 | 0.00 | 0.00 | 58 | 1019.1 |
| 20260507002018 | 22 | 0 | 1.6 | 11.3 | 0.00 | 0.00 | 0.00 | 58 | 1019.1 |
| 20260507001554 | 22 | 303 | 1.6 | 11.3 | 0.00 | 0.00 | 0.00 | 58 | 1019.1 |
| 20260507001023 | 23 | 0 | 0.0 | 12.9 | 0.00 | 0.00 | 0.00 | 57 | 1019.1 |
| 20260507000519 | 23 | 0 | 0.0 | 14.5 | 0.00 | 0.00 | 0.00 | 56 | 1019.0 |
| 20260507000038 | 23 | 294 | 3.2 | 14.5 | 0.00 | 0.00 | 0.00 | 56 | 1018.9 |
| 20260506235519 | 23 | 297 | 3.2 | 11.3 | 0.00 | 0.00 | 0.00 | 57 | 1019.0 |
| 20260506235018 | 22 | 0 | 0.0 | 9.7 | 0.00 | 0.00 | 0.00 | 58 | 1018.9 |
| 20260506234540 | 22 | 0 | 0.0 | 9.7 | 0.00 | 0.00 | 0.00 | 59 | 1019.0 |
| 20260506234019 | 22 | 0 | 0.0 | 16.1 | 0.00 | 0.00 | 0.00 | 59 | 1019.1 |
| 20260506233519 | 23 | 0 | 0.0 | 16.1 | 0.00 | 0.00 | 0.00 | 58 | 1018.9 |
| 20260506233036 | 23 | 338 | 3.2 | 20.9 | 0.00 | 0.00 | 0.00 | 58 | 1019.1 |
| 20260506232518 | 23 | 290 | 0.0 | 20.9 | 0.00 | 0.00 | 0.00 | 59 | 1019.2 |
| 20260506232018 | 23 | 312 | 4.8 | 20.9 | 0.00 | 0.00 | 0.00 | 58 | 1019.2 |
| 20260506231536 | 23 | 0 | 0.0 | 11.3 | 0.00 | 0.00 | 0.00 | 58 | 1019.2 |
| 20260506231016 | 23 | 0 | 0.0 | 14.5 | 0.00 | 0.00 | 0.00 | 58 | 1019.2 |
| 20260506230518 | 23 | 343 | 1.6 | 14.5 | 0.00 | 0.00 | 0.00 | 57 | 1019.2 |
| 20260506230033 | 23 | 0 | 0.0 | 12.9 | 0.00 | 0.00 | 0.00 | 58 | 1019.4 |
| 20260506225518 | 23 | 0 | 0.0 | 12.9 | 0.00 | 0.00 | 0.00 | 56 | 1019.4 |
| 20260506225018 | 23 | 285 | 4.8 | 12.9 | 0.00 | 0.00 | 0.00 | 56 | 1019.4 |
| 20260506224539 | 23 | 274 | 3.2 | 9.7 | 0.00 | 0.00 | 0.00 | 56 | 1019.3 |
| 20260506224014 | 23 | 293 | 0.0 | 14.5 | 0.00 | 0.00 | 0.00 | 56 | 1019.5 |
| 20260506223518 | 23 | 0 | 1.6 | 14.5 | 0.00 | 0.00 | 0.00 | 55 | 1019.6 |
| 20260506223038 | 23 | 322 | 0.0 | 14.5 | 0.00 | 0.00 | 0.00 | 56 | 1019.6 |
| 20260506222518 | 23 | 339 | 1.6 | 14.5 | 0.00 | 0.00 | 0.00 | 57 | 1019.6 |
| 20260506222019 | 23 | 0 | 0.0 | 9.7 | 0.00 | 0.00 | 0.00 | 57 | 1019.6 |
| 20260506221545 | 23 | 0 | 0.0 | 9.7 | 0.00 | 0.00 | 0.00 | 57 | 1019.7 |
| 20260506221018 | 23 | 0 | 0.0 | 9.7 | 0.00 | 0.00 | 0.00 | 57 | 1019.7 |
| 20260506220518 | 22 | 0 | 0.0 | 0.0 | 0.00 | 0.00 | 0.00 | 58 | 1019.8 |
| 20260506220042 | 22 | 0 | 0.0 | 9.7 | 0.00 | 0.00 | 0.00 | 57 | 1019.8 |
| 20260506215519 | 22 | 0 | 0.0 | 9.7 | 0.00 | 0.00 | 0.00 | 58 | 1019.9 |
| 20260506215018 | 22 | 0 | 0.0 | 9.7 | 0.00 | 0.00 | 0.00 | 58 | 1020.0 |
| 20260506214534 | 23 | 0 | 0.0 | 12.9 | 0.00 | 0.00 | 0.00 | 57 | 1020.1 |
| 20260506214017 | 23 | 0 | 1.6 | 12.9 | 0.00 | 0.00 | 0.00 | 58 | 1020.0 |
| 20260506213520 | 23 | 0 | 0.0 | 11.3 | 0.00 | 0.00 | 0.00 | 57 | 1020.1 |
| 20260506213045 | 23 | 0 | 0.0 | 11.3 | 0.00 | 0.00 | 0.00 | 57 | 1020.2 |
| 20260506212519 | 22 | 278 | 1.6 | 11.3 | 0.00 | 0.00 | 0.00 | 58 | 1020.3 |
| 20260506212018 | 22 | 0 | 0.0 | 8.0 | 0.00 | 0.00 | 0.00 | 58 | 1020.3 |
| 20260506211544 | 22 | 0 | 0.0 | 12.9 | 0.00 | 0.00 | 0.00 | 59 | 1020.5 |
| 20260506211018 | 22 | 0 | 1.6 | 12.9 | 0.00 | 0.00 | 0.00 | 58 | 1020.4 |
| 20260506210519 | 22 | 264 | 3.2 | 12.9 | 0.00 | 0.00 | 0.00 | 58 | 1020.4 |
| 20260506210044 | 22 | 0 | 0.0 | 11.3 | 0.00 | 0.00 | 0.00 | 58 | 1020.4 |
| 20260506205517 | 22 | 298 | 1.6 | 11.3 | 0.00 | 0.00 | 0.00 | 58 | 1020.5 |
| 20260506205018 | 22 | 264 | 1.6 | 9.7 | 0.00 | 0.00 | 0.00 | 59 | 1020.6 |
| 20260506204535 | 22 | 0 | 0.0 | 8.0 | 0.00 | 0.00 | 0.00 | 59 | 1020.6 |
| 20260506204019 | 22 | 0 | 0.0 | 9.7 | 0.00 | 0.00 | 0.00 | 59 | 1020.7 |
| 20260506203518 | 21 | 289 | 0.0 | 9.7 | 0.00 | 0.00 | 0.00 | 60 | 1020.7 |
| 20260506203035 | 21 | 0 | 0.0 | 9.7 | 0.00 | 0.00 | 0.00 | 60 | 1020.7 |
| 20260506202517 | 21 | 0 | 1.6 | 14.5 | 0.00 | 0.00 | 0.00 | 60 | 1021.0 |
| 20260506202018 | 21 | 0 | 1.6 | 14.5 | 0.00 | 0.00 | 0.00 | 60 | 1020.9 |
| 20260506201537 | 21 | 0 | 0.0 | 9.7 | 0.00 | 0.00 | 0.00 | 60 | 1020.9 |
| 20260506201017 | 21 | 0 | 0.0 | 9.7 | 0.00 | 0.00 | 0.00 | 61 | 1021.1 |
| 20260506200516 | 21 | 0 | 0.0 | 4.8 | 0.00 | 0.00 | 0.00 | 61 | 1021.0 |
| 20260506200039 | 21 | 0 | 0.0 | 4.8 | 0.00 | 0.00 | 0.00 | 61 | 1021.0 |
| 20260506195517 | 20 | 0 | 0.0 | 0.0 | 0.00 | 0.00 | 0.00 | 61 | 1021.0 |
| 20260506195018 | 21 | 0 | 0.0 | 0.0 | 0.00 | 0.00 | 0.00 | 61 | 1021.1 |
| 20260506194537 | 20 | 0 | 0.0 | 0.0 | 0.00 | 0.00 | 0.00 | 62 | 1021.1 |
| 20260506194017 | 20 | 0 | 0.0 | 0.0 | 0.00 | 0.00 | 0.00 | 62 | 1021.2 |
| 20260506193517 | 20 | 0 | 0.0 | 11.3 | 0.00 | 0.00 | 0.00 | 62 | 1021.3 |
| 20260506193045 | 19 | 0 | 0.0 | 11.3 | 0.00 | 0.00 | 0.00 | 63 | 1021.4 |
| 20260506192517 | 20 | 265 | 0.0 | 11.3 | 0.00 | 0.00 | 0.00 | 63 | 1021.4 |
| 20260506192015 | 20 | 0 | 0.0 | 9.7 | 0.00 | 0.00 | 0.00 | 63 | 1021.5 |
| 20260506191535 | 19 | 0 | 0.0 | 12.9 | 0.00 | 0.00 | 0.00 | 64 | 1021.6 |
| 20260506191018 | 18 | 0 | 0.0 | 12.9 | 0.00 | 0.00 | 0.00 | 66 | 1021.5 |
| 20260506190518 | 19 | 333 | 1.6 | 12.9 | 0.00 | 0.00 | 0.00 | 64 | 1021.5 |
| 20260506190034 | 19 | 0 | 1.6 | 11.3 | 0.00 | 0.00 | 0.00 | 65 | 1021.6 |
| 20260506185517 | 19 | 0 | 1.6 | 11.3 | 0.00 | 0.00 | 0.00 | 65 | 1021.6 |
| 20260506185018 | 18 | 0 | 0.0 | 12.9 | 0.00 | 0.00 | 0.00 | 67 | 1021.6 |
| 20260506184532 | 18 | 0 | 0.0 | 12.9 | 0.00 | 0.00 | 0.00 | 67 | 1021.7 |
| 20260506184019 | 19 | 340 | 1.6 | 12.9 | 0.00 | 0.00 | 0.00 | 65 | 1021.6 |
| 20260506183518 | 18 | 0 | 0.0 | 12.9 | 0.00 | 0.00 | 0.00 | 67 | 1021.7 |
| 20260506183036 | 18 | 0 | 0.0 | 12.9 | 0.00 | 0.00 | 0.00 | 67 | 1021.7 |
| 20260506182515 | 18 | 0 | 0.0 | 8.0 | 0.00 | 0.00 | 0.00 | 67 | 1021.7 |
| 20260506182019 | 18 | 340 | 0.0 | 0.0 | 0.00 | 0.00 | 0.00 | 66 | 1021.7 |
| 20260506181543 | 18 | 0 | 0.0 | 6.4 | 0.00 | 0.00 | 0.00 | 68 | 1021.7 |
| 20260506181018 | 18 | 0 | 0.0 | 6.4 | 0.00 | 0.00 | 0.00 | 67 | 1021.8 |
| 20260506180519 | 18 | 0 | 0.0 | 8.0 | 0.00 | 0.00 | 0.00 | 68 | 1021.8 |
| 20260506180036 | 17 | 0 | 0.0 | 8.0 | 0.00 | 0.00 | 0.00 | 68 | 1021.8 |
| 20260506175521 | 17 | 0 | 0.0 | 0.0 | 0.00 | 0.00 | 0.00 | 69 | 1021.7 |
| 20260506175018 | 17 | 0 | 0.0 | 9.7 | 0.00 | 0.00 | 0.00 | 70 | 1021.8 |
| 20260506174537 | 17 | 0 | 0.0 | 9.7 | 0.00 | 0.00 | 0.00 | 69 | 1021.8 |
| 20260506174023 | 17 | 0 | 0.0 | 9.7 | 0.00 | 0.00 | 0.00 | 69 | 1021.8 |
| 20260506173520 | 17 | 293 | 0.0 | 11.3 | 0.00 | 0.00 | 0.00 | 71 | 1021.8 |
| 20260506173104 | 17 | 0 | 0.0 | 11.3 | 0.00 | 0.00 | 0.00 | 71 | 1021.8 |
| 20260506172518 | 17 | 318 | 1.6 | 12.9 | 0.00 | 0.00 | 0.00 | 71 | 1021.9 |
| 20260506172018 | 16 | 0 | 1.6 | 12.9 | 0.00 | 0.00 | 0.00 | 72 | 1021.8 |
| 20260506171542 | 16 | 0 | 3.2 | 12.9 | 0.00 | 0.00 | 0.00 | 71 | 1021.7 |
| 20260506171020 | 17 | 252 | 1.6 | 12.9 | 0.00 | 0.00 | 0.00 | 71 | 1021.9 |
| 20260506170518 | 16 | 0 | 0.0 | 9.7 | 0.00 | 0.00 | 0.00 | 72 | 1021.9 |
| 20260506170051 | 16 | 0 | 0.0 | 0.0 | 0.00 | 0.00 | 0.00 | 72 | 1021.8 |
| 20260506165519 | 16 | 0 | 0.0 | 6.4 | 0.00 | 0.00 | 0.00 | 71 | 1021.8 |
| 20260506165021 | 16 | 0 | 0.0 | 6.4 | 0.00 | 0.00 | 0.00 | 71 | 1021.8 |
| 20260506164536 | 16 | 0 | 0.0 | 6.4 | 0.00 | 0.00 | 0.00 | 71 | 1021.8 |
| 20260506164017 | 16 | 0 | 0.0 | 0.0 | 0.00 | 0.00 | 0.00 | 73 | 1021.9 |
| 20260506163518 | 16 | 0 | 0.0 | 3.2 | 0.00 | 0.00 | 0.00 | 74 | 1021.9 |
| 20260506163041 | 15 | 0 | 0.0 | 8.0 | 0.00 | 0.00 | 0.00 | 74 | 1021.9 |
| 20260506162518 | 16 | 0 | 0.0 | 8.0 | 0.00 | 0.00 | 0.00 | 73 | 1021.9 |
| 20260506162020 | 16 | 0 | 0.0 | 8.0 | 0.00 | 0.00 | 0.00 | 73 | 1021.9 |
| 20260506161535 | 16 | 0 | 0.0 | 6.4 | 0.00 | 0.00 | 0.00 | 73 | 1021.9 |
| 20260506161020 | 16 | 0 | 0.0 | 4.8 | 0.00 | 0.00 | 0.00 | 73 | 1022.0 |
| 20260506160518 | 16 | 0 | 0.0 | 0.0 | 0.00 | 0.00 | 0.00 | 74 | 1022.1 |
| 20260506160039 | 15 | 0 | 0.0 | 0.0 | 0.00 | 0.00 | 0.00 | 76 | 1021.9 |
| 20260506155524 | 15 | 0 | 0.0 | 0.0 | 0.00 | 0.00 | 0.00 | 75 | 1022.2 |
| 20260506155020 | 15 | 0 | 0.0 | 0.0 | 0.00 | 0.00 | 0.00 | 76 | 1022.2 |
| 20260506154551 | 15 | 0 | 0.0 | 0.0 | 0.00 | 0.00 | 0.00 | 76 | 1022.1 |
| 20260506154020 | 15 | 0 | 0.0 | 0.0 | 0.00 | 0.00 | 0.00 | 76 | 1022.1 |
| 20260506153520 | 15 | 0 | 0.0 | 0.0 | 0.00 | 0.00 | 0.00 | 76 | 1022.1 |
| 20260506153036 | 15 | 0 | 0.0 | 0.0 | 0.00 | 0.00 | 0.00 | 78 | 1022.1 |
| 20260506152519 | 15 | 0 | 0.0 | 0.0 | 0.00 | 0.00 | 0.00 | 77 | 1022.2 |
| 20260506152020 | 15 | 0 | 0.0 | 0.0 | 0.00 | 0.00 | 0.00 | 77 | 1022.1 |
| 20260506151537 | 15 | 0 | 0.0 | 0.0 | 0.00 | 0.00 | 0.00 | 78 | 1022.1 |
| 20260506151020 | 14 | 0 | 0.0 | 0.0 | 0.00 | 0.00 | 0.00 | 78 | 1022.2 |
| 20260506150519 | 14 | 0 | 0.0 | 0.0 | 0.00 | 0.00 | 0.00 | 79 | 1022.2 |
| 20260506150037 | 14 | 0 | 0.0 | 0.0 | 0.00 | 0.00 | 0.00 | 79 | 1022.1 |
| 20260506145521 | 14 | 0 | 0.0 | 0.0 | 0.00 | 0.00 | 0.00 | 80 | 1022.3 |
| 20260506145019 | 13 | 0 | 0.0 | 0.0 | 0.00 | 0.00 | 0.00 | 81 | 1022.4 |
| 20260506144550 | 13 | 0 | 0.0 | 0.0 | 0.00 | 0.00 | 0.00 | 81 | 1022.3 |
| 20260506144022 | 13 | 0 | 0.0 | 0.0 | 0.00 | 0.00 | 0.00 | 82 | 1022.3 |
| 20260506143520 | 13 | 0 | 0.0 | 0.0 | 0.00 | 0.00 | 0.00 | 83 | 1022.2 |
| 20260506143037 | 13 | 0 | 0.0 | 0.0 | 0.00 | 0.00 | 0.00 | 84 | 1022.3 |
| 20260506142520 | 12 | 0 | 0.0 | 0.0 | 0.00 | 0.00 | 0.00 | 85 | 1022.2 |
| 20260506142020 | 12 | 0 | 0.0 | 0.0 | 0.00 | 0.00 | 0.00 | 86 | 1022.2 |
| 20260506141535 | 12 | 0 | 0.0 | 0.0 | 0.00 | 0.00 | 0.00 | 86 | 1022.2 |
| 20260506141020 | 12 | 0 | 0.0 | 0.0 | 0.00 | 0.00 | 0.00 | 87 | 1022.1 |
| 20260506140520 | 12 | 0 | 0.0 | 0.0 | 0.00 | 0.00 | 0.00 | 87 | 1022.0 |
| 20260506140037 | 11 | 0 | 0.0 | 0.0 | 0.00 | 0.00 | 0.00 | 88 | 1021.9 |
| 20260506135519 | 11 | 0 | 0.0 | 0.0 | 0.00 | 0.00 | 0.00 | 88 | 1021.8 |
| 20260506135022 | 11 | 0 | 0.0 | 0.0 | 0.00 | 0.00 | 0.00 | 88 | 1021.7 |
| 20260506134535 | 11 | 0 | 0.0 | 0.0 | 0.00 | 0.00 | 0.00 | 87 | 1021.6 |
| 20260506134022 | 11 | 0 | 0.0 | 0.0 | 0.00 | 0.00 | 0.00 | 87 | 1021.6 |
| 20260506133521 | 11 | 0 | 0.0 | 0.0 | 0.00 | 0.00 | 0.00 | 87 | 1021.5 |
| 20260506133056 | 11 | 0 | 0.0 | 0.0 | 0.00 | 0.00 | 0.00 | 87 | 1021.3 |
| 20260506132520 | 11 | 0 | 0.0 | 0.0 | 0.00 | 0.00 | 0.00 | 87 | 1021.3 |
| 20260506132024 | 11 | 0 | 0.0 | 0.0 | 0.00 | 0.00 | 0.00 | 87 | 1021.2 |
| 20260506131541 | 11 | 0 | 0.0 | 0.0 | 0.00 | 0.00 | 0.00 | 87 | 1021.2 |
| 20260506131020 | 11 | 0 | 0.0 | 0.0 | 0.00 | 0.00 | 0.00 | 86 | 1021.2 |
| 20260506130521 | 11 | 0 | 0.0 | 0.0 | 0.00 | 0.00 | 0.00 | 86 | 1021.0 |
| 20260506130040 | 11 | 0 | 0.0 | 0.0 | 0.00 | 0.00 | 0.00 | 86 | 1021.0 |
| 20260506125519 | 11 | 0 | 0.0 | 0.0 | 0.00 | 0.00 | 0.00 | 86 | 1021.0 |
| 20260506125019 | 11 | 0 | 0.0 | 0.0 | 0.00 | 0.00 | 0.00 | 86 | 1021.0 |
| 20260506124535 | 11 | 0 | 0.0 | 0.0 | 0.00 | 0.00 | 0.00 | 86 | 1021.0 |
| 20260506124020 | 12 | 0 | 0.0 | 0.0 | 0.00 | 0.00 | 0.00 | 85 | 1020.9 |
| 20260506123520 | 12 | 0 | 0.0 | 0.0 | 0.00 | 0.00 | 0.00 | 85 | 1021.0 |
| 20260506123035 | 12 | 0 | 0.0 | 0.0 | 0.00 | 0.00 | 0.00 | 85 | 1020.9 |
| 20260506122519 | 12 | 0 | 0.0 | 0.0 | 0.00 | 0.00 | 0.00 | 85 | 1020.9 |
| 20260506122023 | 12 | 0 | 0.0 | 0.0 | 0.00 | 0.00 | 0.00 | 85 | 1020.9 |
| 20260506121535 | 12 | 0 | 0.0 | 0.0 | 0.00 | 0.00 | 0.00 | 85 | 1020.9 |
| 20260506121019 | 12 | 0 | 0.0 | 0.0 | 0.00 | 0.00 | 0.00 | 84 | 1020.8 |
| 20260506120519 | 12 | 0 | 0.0 | 0.0 | 0.00 | 0.00 | 0.00 | 84 | 1020.9 |
| 20260506120040 | 12 | 0 | 0.0 | 0.0 | 0.00 | 0.00 | 0.00 | 84 | 1020.8 |
| 20260506115520 | 12 | 0 | 0.0 | 0.0 | 0.00 | 0.00 | 0.00 | 84 | 1020.8 |
| 20260506115017 | 12 | 0 | 0.0 | 0.0 | 0.00 | 0.00 | 0.00 | 84 | 1020.7 |
| 20260506114540 | 12 | 0 | 0.0 | 0.0 | 0.00 | 0.00 | 0.00 | 84 | 1020.7 |
| 20260506114020 | 12 | 0 | 0.0 | 0.0 | 0.00 | 0.00 | 0.00 | 84 | 1020.8 |
| 20260506113523 | 12 | 0 | 0.0 | 0.0 | 0.00 | 0.00 | 0.00 | 84 | 1020.8 |
| 20260506113036 | 12 | 0 | 0.0 | 0.0 | 0.00 | 0.00 | 0.00 | 84 | 1020.8 |
| 20260506112518 | 12 | 0 | 0.0 | 0.0 | 0.00 | 0.00 | 0.00 | 84 | 1020.6 |
| 20260506112019 | 12 | 0 | 0.0 | 0.0 | 0.00 | 0.00 | 0.00 | 84 | 1020.6 |
| 20260506111535 | 12 | 0 | 0.0 | 0.0 | 0.00 | 0.00 | 0.00 | 84 | 1020.7 |
| 20260506111019 | 12 | 0 | 0.0 | 0.0 | 0.00 | 0.00 | 0.00 | 84 | 1020.6 |
| 20260506110519 | 12 | 0 | 0.0 | 0.0 | 0.00 | 0.00 | 0.00 | 84 | 1020.6 |
| 20260506110041 | 12 | 0 | 0.0 | 0.0 | 0.00 | 0.00 | 0.00 | 84 | 1020.6 |
| 20260506105517 | 12 | 0 | 0.0 | 0.0 | 0.00 | 0.00 | 0.00 | 84 | 1020.7 |
| 20260506105019 | 12 | 0 | 0.0 | 0.0 | 0.00 | 0.00 | 0.00 | 84 | 1020.7 |
| 20260506104605 | 12 | 0 | 0.0 | 0.0 | 0.00 | 0.00 | 0.00 | 84 | 1020.6 |
| 20260506104019 | 12 | 0 | 0.0 | 0.0 | 0.00 | 0.00 | 0.00 | 83 | 1020.6 |
| 20260506103517 | 12 | 0 | 0.0 | 0.0 | 0.00 | 0.00 | 0.00 | 83 | 1020.5 |
| 20260506103042 | 12 | 0 | 0.0 | 0.0 | 0.00 | 0.00 | 0.00 | 83 | 1020.5 |
| 20260506102519 | 12 | 0 | 0.0 | 0.0 | 0.00 | 0.00 | 0.00 | 83 | 1020.5 |
| 20260506102020 | 13 | 0 | 0.0 | 0.0 | 0.00 | 0.00 | 0.00 | 82 | 1020.5 |
| 20260506101540 | 13 | 0 | 0.0 | 0.0 | 0.00 | 0.00 | 0.00 | 82 | 1020.4 |
| 20260506101019 | 13 | 0 | 0.0 | 0.0 | 0.00 | 0.00 | 0.00 | 82 | 1020.5 |
| 20260506100521 | 13 | 0 | 0.0 | 0.0 | 0.00 | 0.00 | 0.00 | 82 | 1020.5 |
| 20260506100042 | 13 | 0 | 0.0 | 0.0 | 0.00 | 0.00 | 0.00 | 82 | 1020.6 |
| 20260506095520 | 13 | 0 | 0.0 | 0.0 | 0.00 | 0.00 | 0.00 | 82 | 1020.5 |
| 20260506095020 | 13 | 0 | 0.0 | 0.0 | 0.00 | 0.00 | 0.00 | 82 | 1020.6 |
| 20260506094538 | 13 | 0 | 0.0 | 0.0 | 0.00 | 0.00 | 0.00 | 82 | 1020.4 |
| 20260506094019 | 13 | 0 | 0.0 | 0.0 | 0.00 | 0.00 | 0.00 | 82 | 1020.4 |
| 20260506093519 | 13 | 0 | 0.0 | 0.0 | 0.00 | 0.00 | 0.00 | 82 | 1020.5 |
| 20260506093035 | 13 | 0 | 0.0 | 0.0 | 0.00 | 0.00 | 0.00 | 82 | 1020.5 |
| 20260506092520 | 13 | 0 | 0.0 | 0.0 | 0.00 | 0.00 | 0.00 | 81 | 1020.5 |
| 20260506092017 | 13 | 0 | 0.0 | 0.0 | 0.00 | 0.00 | 0.00 | 81 | 1020.5 |
| 20260506091539 | 13 | 0 | 0.0 | 0.0 | 0.00 | 0.00 | 0.00 | 81 | 1020.6 |
| 20260506091016 | 13 | 0 | 0.0 | 0.0 | 0.00 | 0.00 | 0.00 | 80 | 1020.6 |
| 20260506090520 | 13 | 0 | 0.0 | 0.0 | 0.00 | 0.00 | 0.00 | 80 | 1020.6 |
| 20260506090044 | 13 | 0 | 0.0 | 0.0 | 0.00 | 0.00 | 0.00 | 80 | 1020.6 |
| 20260506085517 | 13 | 0 | 0.0 | 0.0 | 0.00 | 0.00 | 0.00 | 80 | 1020.5 |
| 20260506085017 | 13 | 0 | 0.0 | 0.0 | 0.00 | 0.00 | 0.00 | 80 | 1020.5 |
| 20260506084538 | 13 | 0 | 0.0 | 0.0 | 0.00 | 0.00 | 0.00 | 80 | 1020.6 |
| 20260506084022 | 13 | 0 | 0.0 | 0.0 | 0.00 | 0.00 | 0.00 | 80 | 1020.5 |
| 20260506083518 | 13 | 0 | 0.0 | 0.0 | 0.00 | 0.00 | 0.00 | 80 | 1020.6 |
| 20260506083040 | 13 | 0 | 0.0 | 0.0 | 0.00 | 0.00 | 0.00 | 80 | 1020.6 |
| 20260506082519 | 13 | 0 | 0.0 | 0.0 | 0.00 | 0.00 | 0.00 | 80 | 1020.6 |
| 20260506082023 | 13 | 0 | 0.0 | 0.0 | 0.00 | 0.00 | 0.00 | 80 | 1020.5 |
| 20260506081534 | 13 | 0 | 0.0 | 0.0 | 0.00 | 0.00 | 0.00 | 80 | 1020.5 |
| 20260506081022 | 13 | 0 | 0.0 | 0.0 | 0.00 | 0.00 | 0.00 | 80 | 1020.5 |
| 20260506080517 | 13 | 0 | 0.0 | 0.0 | 0.00 | 0.00 | 0.00 | 80 | 1020.5 |
| 20260506073520 | 13 | 0 | 0.0 | 0.0 | 0.00 | 0.00 | 0.00 | 79 | 1020.5 |
| 20260506073038 | 13 | 0 | 0.0 | 0.0 | 0.00 | 0.00 | 0.00 | 79 | 1020.4 |
| 20260506072521 | 13 | 0 | 0.0 | 0.0 | 0.00 | 0.00 | 0.00 | 79 | 1020.4 |
| 20260506072017 | 13 | 0 | 0.0 | 0.0 | 0.00 | 0.00 | 0.00 | 79 | 1020.4 |
| 20260506071538 | 13 | 0 | 0.0 | 0.0 | 0.00 | 0.00 | 0.00 | 79 | 1020.3 |
| 20260506071019 | 13 | 0 | 0.0 | 0.0 | 0.00 | 0.00 | 0.00 | 79 | 1020.2 |
| 20260506070519 | 13 | 0 | 0.0 | 0.0 | 0.00 | 0.00 | 0.00 | 79 | 1020.2 |
| 20260506062019 | 13 | 0 | 0.0 | 0.0 | 0.00 | 0.00 | 0.00 | 79 | 1019.9 |
| 20260506061540 | 14 | 0 | 0.0 | 0.0 | 0.00 | 0.00 | 0.00 | 79 | 1019.8 |
| 20260506061020 | 14 | 0 | 0.0 | 0.0 | 0.00 | 0.00 | 0.00 | 78 | 1019.8 |
| 20260506060517 | 14 | 0 | 0.0 | 0.0 | 0.00 | 0.00 | 0.00 | 78 | 1019.7 |